This is the latest recevied weather packets stored in our database for station/object LU8FCJ-5. If no packets are shown the sender has not sent any weather packets the latest 10 day(s).
| Time | Temp. | Humidity | Pressure | Rain* | Wind** | Luminosity | Snow |
|---|---|---|---|---|---|---|---|
| 1778218553 | 6.67° C | 67% | 1008.1 hPa | 0 mm | - | - | - |
| 1778218248 | 6.11° C | 68% | 1007.8 hPa | 0 mm | - | - | - |
| 1778217934 | 6.11° C | 69% | 1008 hPa | 0 mm | - | - | - |
| 1778217627 | 6.67° C | 69% | 1008.1 hPa | 0 mm | - | - | - |
| 1778217322 | 6.67° C | 70% | 1008.1 hPa | 0 mm | - | - | - |
| 1778217003 | 6.11° C | 72% | 1007.9 hPa | 0 mm | - | - | - |
| 1778216693 | 6.11° C | 72% | 1008 hPa | 0 mm | - | - | - |
| 1778216383 | 6.11° C | 73% | 1008.1 hPa | 0 mm | - | - | - |
| 1778216072 | 6.67° C | 73% | 1008 hPa | 0 mm | - | - | - |
| 1778215763 | 6.67° C | 73% | 1008 hPa | 0 mm | - | - | - |
| 1778215453 | 6.67° C | 74% | 1007.9 hPa | 0 mm | - | - | - |
| 1778215142 | 6.67° C | 74% | 1007.9 hPa | 0 mm | - | - | - |
| 1778214831 | 7.22° C | 74% | 1008 hPa | 0 mm | - | - | - |
| 1778214522 | 6.67° C | 76% | 1008.2 hPa | 0 mm | - | - | - |
| 1778214212 | 7.22° C | 75% | 1008 hPa | 0 mm | - | - | - |
| 1778213903 | 7.22° C | 75% | 1008.1 hPa | 0 mm | - | - | - |
| 1778213595 | 7.78° C | 75% | 1007.9 hPa | 0 mm | - | - | - |
| 1778213281 | 7.78° C | 76% | 1008 hPa | 0 mm | - | - | - |
| 1778212971 | 7.22° C | 78% | 1008 hPa | 0 mm | - | - | - |
| 1778212664 | 7.22° C | 78% | 1007.8 hPa | 0 mm | - | - | - |
| 1778212351 | 7.78° C | 77% | 1008 hPa | 0 mm | - | - | - |
| 1778212041 | 7.78° C | 77% | 1007.8 hPa | 0 mm | - | - | - |
| 1778211731 | 7.78° C | 78% | 1008 hPa | 0 mm | - | - | - |
| 1778211421 | 7.78° C | 79% | 1007.9 hPa | 0 mm | - | - | - |
| 1778211110 | 7.78° C | 79% | 1007.8 hPa | 0 mm | - | - | - |
* Rain latest hour (hover to see other rain measurements)
** Current wind speed in m/s (hover to see current wind gust speed)